Regional Weather Roundup
Issued by NWS Sioux Falls, SD

Home | Current Version | Previous Version | Text Only | Print | Product List | Glossary Off
Versions: 1 2 3 4 5 6 7 8 9 10 11 12 13 14 15 16 17 18 19 20 21 22 23 24 25 26 27 28 29 30 31 32 33 34 35 36 37 38 39 40 41 42 43 44 45 46 47 48 49 50

000
ASUS43 KFSD 252202
RWRFSD

WEATHER ROUNDUP FOR SE SOUTH DAKOTA/SW MINNESOTA/NW IOWA
NATIONAL WEATHER SERVICE SIOUX FALLS SD
400 PM CST SAT FEB 25 2017

NOTE: "FAIR" INDICATES FEW OR NO CLOUDS BELOW 12,000 FEET WITH NO
SIGNIFICANT WEATHER AND OR OBSTRUCTIONS TO VISIBILITY.


SDZ038>040-050-052>070-252300-
SOUTHEAST SOUTH DAKOTA

CITY           SKY/WX    TMP DP  RH WIND       PRES   REMARKS
BROOKINGS      MOSUNNY   31  19  61 S17       29.83F WCI  19
CHAMBERLAIN    PTSUNNY   40  23  52 SW14      29.81F
HURON          CLOUDY    39  19  44 W12       29.80F
MADISON        FAIR      30  21  69 S17       29.84F WCI  18
MITCHELL       PTSUNNY   31  21  66 S16       29.86F WCI  20
SIOUX FALLS    MOSUNNY   28  17  63 S20       29.89F WCI  15
WINNER         FAIR      36  24  62 SW9       29.83F
YANKTON        SUNNY     30  16  55 S15G22    29.91F WCI  19
$$

MNZ071-072-080-081-089-090-097-098-252300-
SOUTHWEST MINNESOTA

CITY           SKY/WX    TMP DP  RH WIND       PRES   REMARKS
FAIRMONT       CLOUDY    26  18  71 SW16      29.95F WCI  14
JACKSON        CLOUDY    27  19  74 SW12      29.93F WCI  16
LUVERNE        CLOUDY    28  18  64 S15       29.90F WCI  17
MARSHALL       PTSUNNY   31  19  61 SW18      29.87F WCI  19
MONTEVIDEO     CLOUDY    36  19  51 W14       29.86F
PIPESTONE      CLOUDY    28  16  59 SW14      29.86F WCI  17
REDWOOD FALLS  PTSUNNY   35  17  47 SW16      29.88F WCI  25
TRACY          CLOUDY    31  20  64 SW17      29.89F WCI  19
WINDOM         CLOUDY    27  19  74 SW16      29.90F WCI  14
WORTHINGTON    CLOUDY    26  18  71 SW15      29.90F WCI  14
$$

IAZ001>003-012>014-020>022-031-032-NEZ013-014-SDZ071-252300-
NORTHWEST IOWA

CITY           SKY/WX    TMP DP  RH WIND       PRES   REMARKS
CHEROKEE       CLOUDY    27  16  61 S12       29.97F WCI  17
DENISON        SUNNY     28  18  64 SW9       29.98F WCI  20
ESTHERVILLE    CLOUDY    24  18  77 SW12      29.94F WCI  13
LE MARS        MOSUNNY  N/A N/A N/A S16       29.96F
SHELDON        CLOUDY    28  21  74 S15       29.92F WCI  17
SIOUX CITY     SUNNY     30  16  56 S15       29.98F WCI  19
SPENCER        CLOUDY    26  18  71 SW13      29.95F WCI  15
STORM LAKE     SUNNY     25  18  74 SW14      29.97F WCI  13
$$

ABBREVIATIONS USED IN REMARKS
   TC - TEMPERATURE IN CELSIUS
  WCI - WIND CHILL INDEX
   HX - HEAT INDEX
  VSB - VISIBILITY




USA.gov is the U.S. government's official web portal to all federal, state and local government web resources and services.